Location: Ore Lake
(42.4733°N, 83.8017°W)
Time: 00:05:46
(UTC-05:00)

Daily predictions for brighter satellites

Satellite Brightness Start Highest point End
(mag) Time Altitude Azimuth Time Altitude Azimuth Time Altitude Azimuth
ADEOS II 4.0 03:49:38 10° NE 03:52:50 26° ENE 03:52:50 26° ENE
ATLAS CENTAUR R/B 3.8 03:57:39 55° E 03:57:39 55° E 04:08:15 10° SE
Cosmos 2369 Rocket 3.7 03:58:19 33° ENE 03:58:19 33° ENE 04:01:52 10° NE
USA 234 3.8 04:01:13 10° ENE 04:07:05 51° ESE 04:07:05 51° ESE
ADEOS Rocket 4.4 04:12:06 10° N 04:15:37 30° N 04:15:37 30° N
Lacrosse 5 3.6 04:21:27 28° ESE 04:21:27 28° ESE 04:25:13 10° ENE
Cosmos 2263 4.4 04:39:27 66° ESE 04:39:27 66° ESE 04:45:00 10° NNE
ATLAS 5 CENTAUR R/B 2.5 04:40:36 50° E 04:40:36 50° E 04:45:01 10° NE
Cosmos 1867 4.1 04:42:02 53° NNE 04:42:02 53° NNE 04:46:15 10° NNE
CZ-4B R/B 3.3 04:38:23 10° NNE 04:43:24 72° NNE 04:43:24 72° NNE
Cosmos 1943 Rocket 2.7 04:46:13 41° SSE 04:47:41 53° ESE 04:53:04 10° NNE
Cosmos 1190 Rocket 4.2 04:50:32 31° N 04:53:04 68° ENE 04:58:18 10° SSE
Okean O Rocket 3.9 04:50:10 10° N 04:50:54 15° N 04:50:54 15° N
Cosmos 1624 Rocket 3.9 05:07:58 72° W 05:08:13 74° WNW 05:13:35 10° NNE
Cosmos 2056 Rocket 3.3 05:09:10 74° WSW 05:09:28 78° WNW 05:14:41 10° NNE
Nadezhda 2 Rocket 4.4 05:05:12 10° N 05:11:21 88° E 05:17:28 10° S
COSMO-SKYMED 1 4.1 05:10:46 10° SE 05:14:43 36° ENE 05:18:42 10° N
Cosmos 2266 Rocket 4.0 05:09:47 10° NNW 05:15:44 53° W 05:21:35 10° SSW
Cosmos 972 Rocket 4.0 05:22:16 53° W 05:22:32 54° WNW 05:27:52 10° N
Meteor 1-31 Rocket 2.6 05:18:56 10° NNE 05:22:51 90° E 05:23:12 73° SSW
Abrixas 4.0 05:28:55 30° NNE 05:28:55 30° NNE 05:30:42 10° NE
Feng Yun 1-1 Rocket 4.3 05:27:13 10° NNE 05:33:06 82° WNW 05:39:01 10° SSW
Cosmos 2219 4.1 05:28:02 10° NNW 05:33:32 48° ENE 05:38:58 10° SE
ADEOS II 2.7 05:29:12 10° N 05:33:48 35° WNW 05:33:48 35° WNW
Thor Agena Rocket 3.4 05:30:27 10° S 05:35:40 71° WSW 05:40:51 10° NNW
Cosmos 1417 Rocket 4.5 05:30:48 10° S 05:36:59 83° E 05:43:09 10° N
CZ-4B R/B 3.7 05:33:38 10° N 05:37:32 65° WNW 05:39:08 34° SW
Sich 1 Rocket 3.7 05:34:48 10° NNW 05:39:13 52° W 05:43:35 10° S
Cosmos 2369 Rocket 3.0 05:40:07 30° WNW 05:40:42 31° NW 05:45:43 10° N
Tiangong 1 2.0 05:43:28 33° S 05:43:50 34° SSE 05:46:33 10° E
Okean 1-7 3.0 05:41:57 10° S 05:46:14 83° E 05:50:31 10° N
Cosmos 1908 Rocket 3.8 05:42:11 10° NNW 05:46:28 46° W 05:50:44 10° SSW
Okean-O 2.8 05:42:29 10° N 05:46:47 49° WNW 05:49:14 23° SW
USA 234 3.5 05:44:15 10° NE 05:50:34 53° NNW 05:54:27 24° W
CZ-4C R/B 2.4 05:45:32 10° SSW 05:50:43 71° ESE 05:56:38 10° NE
Cosmos 1452 Rocket 3.4 05:45:38 10° SSW 05:50:55 80° WNW 05:56:15 10° NNE
Cosmos 1782 Rocket 3.5 05:47:28 10° NNW 05:51:56 69° W 05:56:20 10° S
Cosmos 1656 Rocket 3.7 05:50:37 10° SSW 05:56:18 90° ESE 06:02:01 10° NNE
Cosmos 1833 4.4 05:54:08 10° NW 05:59:26 45° WSW 06:04:44 10° S
SKYMED 2 3.5 05:58:23 10° S 06:02:42 69° WSW 06:07:03 10° NNW
Cosmos 1023 Rocket 4.4 05:57:44 10° NNW 06:03:00 79° WSW 06:08:15 10° SSE
Lacrosse 5 2.1 06:00:42 23° WSW 06:03:39 54° NW 06:08:39 10° NE
Lacrosse 5 rocket 3.5 06:02:06 10° NNW 06:04:31 17° NNE 06:06:54 10° ENE
Cosmos 407 Rocket 4.3 06:04:15 10° NW 06:08:53 30° W 06:13:27 10° SSW
Cosmos 676 Rocket 4.4 06:06:34 10° NW 06:11:31 41° WSW 06:16:27 10° S
Okean 2 Rocket 3.1 06:07:25 10° NNW 06:11:44 57° W 06:16:01 10° S
USA 81 4.1 06:06:36 10° S 06:11:52 84° E 06:17:11 10° N
Radarsat Rocket 4.3 06:09:37 10° NNE 06:17:03 71° WNW 06:23:31 10° SSW
ATLAS 3B R/B 3.8 06:11:31 10° SSW 06:18:50 53° ESE 06:25:55 10° NE
S3M 4.1 06:18:08 10° SSW 06:24:22 56° WNW 06:30:34 10° N
Meteor 1-20 Rocket 4.2 06:18:56 10° NNW 06:24:37 64° W 06:30:08 10° S
ATLAS 5 CENTAUR R/B 3.0 06:22:11 16° W 06:25:05 26° NW 06:29:28 10° NNE
Cosmos 1782 2.7 06:22:20 10° SSW 06:26:16 67° W 06:30:15 10° N
Meteor 1-28 Rocket 3.5 06:26:11 10° S 06:29:43 42° W 06:33:17 10° NNW
Cosmos 2151 Rocket 3.6 06:26:07 10° N 06:30:40 77° W 06:35:07 10° S
Cosmos 1943 Rocket 3.2 06:27:48 12° WSW 06:31:46 24° NW 06:36:15 10° N
Cosmos 1140 Rocket 3.8 06:27:50 10° NNW 06:32:44 43° WSW 06:37:39 10° S
Cosmos 1553 Rocket 4.2 06:27:03 10° SSW 06:32:56 46° WNW 06:38:57 10° N
Meteor 2-10 Rocket 4.3 06:28:55 10° SW 06:33:09 27° WNW 06:37:26 10° NNW
Okean 1 Rocket 4.4 06:31:39 10° N 06:35:53 43° ENE 06:40:05 10° SSE
Cosmos 1607 4.4 06:30:57 10° SSW 06:36:58 65° ESE 06:43:06 10° NE
Cosmos 1633 3.0 06:33:37 10° N 06:37:15 68° E 06:40:51 10° SSE
Cosmos 1602 4.0 06:39:48 10° N 06:43:47 77° E 06:47:44 10° SSE
Cosmos 614 Rocket 4.3 06:39:12 10° NNW 06:44:01 44° WSW 06:48:51 10° S
CSL-04 Rocket 3.6 06:41:30 10° N 06:46:50 70° WNW 06:52:14 10° SSW
COSMO-SKYMED 1 3.8 06:47:42 10° SW 06:50:58 21° W 06:54:16 10° NW
Cosmos 1606 3.1 06:47:43 10° SSW 06:51:24 42° WNW 06:55:08 10° N
IDEFIX/ARIANE 42P 2.7 06:47:20 10° NNE 06:52:36 85° ESE 06:57:48 10° SSW
CZ-4 R/B 1.6 06:49:14 10° NNE 06:53:26 82° E 06:57:33 10° S
Cosmos 1850 Rocket 4.4 06:48:27 10° NNW 06:53:31 45° WSW 06:58:31 10° S
PAYLOAD A 3.8 06:48:52 10° N 06:53:33 65° WNW 06:58:18 10° SSW
Meteor 2-6 Rocket 4.2 06:48:33 10° SSW 06:53:51 58° WNW 06:59:11 10° N
